Location: Julian California
(33.0790°N, 116.6010°W)
Time: 18:38:08
(UTC-07:00)

Cosmos 1726 - Pass Details

Date: 14 June 2018
Orbit: 484 x 503 km, 82.5° (Epoch: 20 August)

Event Time Altitude Azimuth Distance (km) Brightness Sun altitude
Rises 23:15:59 0° 352° (N) 2,592 6.8 -29.6°
Reaches altitude 10° 23:18:06 10° 352° (N) 1,708 5.7 -29.8°
Enters shadow 23:19:38 23° 351° (N) 1,088 4.4 -29.9°
